Weather History for CWDK - November, 2012

Change the Weather History Date:

Saturday, November 3, 2012

  Actual Average Record
Temperature  
Mean Temperature 40 °F -  
Max Temperature 52 °F - - ()
Min Temperature 29 °F - - ()
Degree Days  
Heating Degree Days 26    
Moisture  
Dew Point 34 °F    
Average Humidity 86    
Maximum Humidity 100    
Minimum Humidity 49    
Precipitation  
Precipitation 0.00 in - - ()
Sea Level Pressure  
Sea Level Pressure 30.03 in    
Wind  
Wind Speed 6 mph ()    
Max Wind Speed 16 mph    
Max Gust Speed 23 mph    
T = Trace of Precipitation, MM = Missing Value Source: Averaged Metar Reports

Daily Weather History Graph

Daily Weather History Graph

Search for Another Location

Airport or City:

Trip Planner

Search our weather history database for the weather conditions in past years. The results will help you decide how hot, cold, wet, or windy it might be!

Date:

Astronomy

Nov. 03, 2012 Rise Set
Actual Time 8:28 AM MDT 6:06 PM MDT
Civil Twilight 7:54 AM MDT 6:41 PM MDT
Nautical Twilight 7:15 AM MDT 7:19 PM MDT
Astronomical Twilight 6:38 AM MDT 7:57 PM MDT
Moon 9:42 PM MDT (11/3) 12:45 PM MDT (11/3)
Length of Visible Light 10h 46m
Length of Day
9h 38m
Waning Gibbous, 80% of the Moon is Illuminated
Nov 3
Waning Gibbous
Nov 6
Last Quarter
Nov 13
New
Nov 20
First Quarter
Nov 28
Full

Hourly Weather History & Observations

Time (MDT) Temp. Windchill Dew Point Humidity Pressure Visibility Wind Dir Wind Speed Gust Speed Precip Events Conditions
12:00 AM 32 °F - 32 °F 100% 30.16 in - SE 8.1 mph - -  
12:00 AM 32.0 °F 24.8 °F 32.0 °F 100% 30.16 in - SE 8.1 mph - N/A   Unknown
1:00 AM 31.6 °F 25.1 °F 31.6 °F 100% 30.15 in - SSE 6.9 mph - N/A   Unknown
2:00 AM 31.5 °F 24.2 °F 31.5 °F 100% 30.14 in - SSE 8.1 mph - N/A   Unknown
3:00 AM 31.6 °F 25.1 °F 31.6 °F 100% 30.13 in - SSE 6.9 mph - N/A   Unknown
4:00 AM 32.0 °F 25.6 °F 32.0 °F 100% 30.12 in - SSE 6.9 mph - N/A   Unknown
5:00 AM 31.8 °F 24.6 °F 31.8 °F 100% 30.11 in - South 8.1 mph - N/A   Unknown
6:00 AM 31 °F - 31 °F 100% 30.10 in - South 9.2 mph - -  
6:00 AM 30.9 °F 22.8 °F 30.9 °F 100% 30.10 in - South 9.2 mph - N/A   Unknown
7:00 AM 30.4 °F 22.9 °F 30.4 °F 100% 30.09 in - SSE 8.1 mph - N/A   Unknown
8:00 AM 29.8 °F 23.9 °F 29.8 °F 100% 30.07 in - SSE 5.8 mph - N/A   Unknown
9:00 AM 29.7 °F - 29.7 °F 100% 30.06 in - SE 2.3 mph - N/A   Unknown
10:00 AM 31.3 °F 27.9 °F 31.3 °F 100% 30.05 in - South 3.5 mph - N/A   Unknown
11:00 AM 34.5 °F 30.4 °F 34.5 °F 100% 30.01 in - SE 4.6 mph - N/A   Unknown
12:00 PM 40 °F - 40 °F 98% 29.99 in - South 6.9 mph - -  
12:00 PM 40.1 °F 35.3 °F 39.6 °F 98% 29.99 in - South 6.9 mph - N/A   Unknown
1:00 PM 42.6 °F 39.0 °F 39.7 °F 90% 29.98 in - South 5.8 mph - N/A   Unknown
2:00 PM 44.2 °F 41.0 °F 38.5 °F 80% 29.96 in - SSE 5.8 mph - N/A   Unknown
3:00 PM 44.6 °F 43.1 °F 38.8 °F 80% 29.95 in - South 3.5 mph - N/A   Unknown
4:00 PM 48.6 °F - 39.7 °F 72% 29.93 in - SSW 11.5 mph - N/A   Unknown
5:00 PM 49.1 °F - 38.5 °F 67% 29.94 in - SW 13.8 mph - N/A   Unknown
6:00 PM 45 °F - 37 °F 65% 29.95 in - ESE 4.6 mph - -  
6:00 PM 45.1 °F 42.8 °F 37.0 °F 73% 29.95 in - ESE 4.6 mph - N/A   Unknown
7:00 PM 49.5 °F - 35.1 °F 58% 29.94 in - South 3.5 mph - N/A   Unknown
8:00 PM 48.9 °F - 33.8 °F 56% 29.95 in - North 4.6 mph - N/A   Unknown
9:00 PM 50.0 °F - 34.5 °F 55% 29.95 in - West 16.1 mph 23.0 mph N/A   Unknown
10:00 PM 49.5 °F - 34.7 °F 57% 29.92 in - WSW 10.4 mph - N/A   Unknown
11:00 PM 52.5 °F - 33.6 °F 49% 29.93 in - WSW 4.6 mph - N/A   Unknown